This is the latest recevied weather packets stored in our database for station/object VA2CPJ. If no packets are shown the sender has not sent any weather packets the latest 10 day(s).
| Time | Temp. | Humidity | Pressure | Rain* | Wind** | Luminosity | Snow |
|---|---|---|---|---|---|---|---|
| 1777892138 | 3.89° C | 66% | 1014 hPa | - | - | - | - |
| 1777889129 | 1.67° C | 75% | 1014 hPa | - | - | - | - |
| 1777888849 | 1.11° C | 76% | 1013.3 hPa | - | - | - | - |
| 1777887376 | 1.11° C | 77% | 1014.3 hPa | - | - | 559 W/m² | - |
| 1777886722 | 0.56° C | 78% | 1014.3 hPa | - | - | 212 W/m² | - |
| 1777885842 | 0.56° C | 78% | 1013.3 hPa | - | - | 25 W/m² | - |
| 1777884622 | 0.56° C | 78% | 1013.3 hPa | - | - | 0 W/m² | - |
| 1777883756 | 0.56° C | 77% | 1014.3 hPa | - | - | 0 W/m² | - |
| 1777883721 | 0.56° C | 77% | 1014.3 hPa | - | - | 0 W/m² | - |
| 1777882820 | 0.56° C | 77% | 1013.7 hPa | - | - | 0 W/m² | - |
| 1777881659 | 0.56° C | 77% | 1013.7 hPa | - | - | 0 W/m² | - |
| 1777881344 | 0.56° C | 77% | 1014.3 hPa | - | - | 0 W/m² | - |
| 1777879243 | 1.11° C | 75% | 1014 hPa | - | - | 0 W/m² | - |
| 1777878033 | 1.67° C | 73% | 1013.7 hPa | - | - | 0 W/m² | - |
| 1777877123 | 1.67° C | 73% | 1014.7 hPa | - | - | 0 W/m² | - |
| 1777876222 | 1.67° C | 73% | 1014 hPa | - | - | 0 W/m² | - |
| 1777875944 | 1.67° C | 73% | 1014.7 hPa | - | - | 0 W/m² | - |
| 1777875330 | 1.67° C | 73% | 1015 hPa | - | - | 0 W/m² | - |
| 1777873527 | 3.33° C | 67% | 1014.7 hPa | - | - | 0 W/m² | - |
| 1777872984 | 3.33° C | 68% | 1014.7 hPa | - | - | 0 W/m² | - |
| 1777871138 | 3.89° C | 64% | 1015 hPa | - | - | 0 W/m² | - |
| 1777869966 | 3.89° C | 61% | 1015 hPa | - | - | 0 W/m² | - |
| 1777868723 | 4.44° C | 64% | 1015.4 hPa | - | - | 0 W/m² | - |
| 1777868426 | 4.44° C | 64% | 1014.7 hPa | - | - | 0 W/m² | - |
| 1777867525 | 4.44° C | 65% | 1015.4 hPa | - | - | 0 W/m² | - |
* Rain since midnight (hover to see other rain measurements)
** Current wind speed in m/s (hover to see current wind gust speed)